Year,Month,Day,Hour,Minute,Value (Times are PST for temperature in C)
2009,02,04,00,00,0.50
2009,02,04,00,01,0.50
2009,02,04,00,02,0.50
2009,02,04,00,03,0.40
2009,02,04,00,04,0.40
2009,02,04,00,05,0.40
2009,02,04,00,06,0.40
2009,02,04,00,07,0.40
2009,02,04,00,08,0.40
2009,02,04,00,09,0.40
2009,02,04,00,10,0.40
2009,02,04,00,11,0.40
2009,02,04,00,12,0.40
2009,02,04,00,13,0.40
2009,02,04,00,14,0.40
2009,02,04,00,15,0.50
2009,02,04,00,16,0.60
2009,02,04,00,17,0.70
2009,02,04,00,18,0.80
2009,02,04,00,19,0.70
2009,02,04,00,20,0.70
2009,02,04,00,21,0.60
2009,02,04,00,22,0.50
2009,02,04,00,23,0.40
2009,02,04,00,24,0.30
2009,02,04,00,25,0.20
2009,02,04,00,26,0.20
2009,02,04,00,27,0.20
2009,02,04,00,28,0.20
2009,02,04,00,29,0.10
2009,02,04,00,30,0.10
2009,02,04,00,31,0.10
2009,02,04,00,32,0.10
2009,02,04,00,33,0.20
2009,02,04,00,34,0.20
2009,02,04,00,35,0.30
2009,02,04,00,36,0.40
2009,02,04,00,37,0.40
2009,02,04,00,38,0.50
2009,02,04,00,39,0.60
2009,02,04,00,40,0.60
2009,02,04,00,41,0.60
2009,02,04,00,42,0.50
2009,02,04,00,43,0.50
2009,02,04,00,44,0.40
2009,02,04,00,45,0.40
2009,02,04,00,46,0.40
2009,02,04,00,47,0.60
2009,02,04,00,48,0.70
2009,02,04,00,49,0.80
2009,02,04,00,50,0.80
2009,02,04,00,51,0.80
2009,02,04,00,52,0.80
2009,02,04,00,53,0.80
2009,02,04,00,54,0.80
2009,02,04,00,55,0.80
2009,02,04,00,56,0.70
2009,02,04,00,57,0.60
2009,02,04,00,58,0.50
2009,02,04,00,59,0.40
2009,02,04,01,00,0.40
2009,02,04,01,01,0.30
2009,02,04,01,02,0.20
2009,02,04,01,03,0.20
2009,02,04,01,04,0.20
2009,02,04,01,05,0.30
2009,02,04,01,06,0.40
2009,02,04,01,07,0.50
2009,02,04,01,08,0.50
2009,02,04,01,09,0.60
2009,02,04,01,10,0.60
2009,02,04,01,11,0.60
2009,02,04,01,12,0.50
2009,02,04,01,13,0.40
2009,02,04,01,14,0.40
2009,02,04,01,15,0.40
2009,02,04,01,16,0.40
2009,02,04,01,17,0.40
2009,02,04,01,18,0.30
2009,02,04,01,19,0.30
2009,02,04,01,20,0.30
2009,02,04,01,21,0.40
2009,02,04,01,22,0.40
2009,02,04,01,23,0.30
2009,02,04,01,24,0.20
2009,02,04,01,25,0.20
2009,02,04,01,26,0.10
2009,02,04,01,27,0.10
2009,02,04,01,28,0.10
2009,02,04,01,29,0.20
2009,02,04,01,30,0.20
2009,02,04,01,31,0.30
2009,02,04,01,32,0.30
2009,02,04,01,33,0.30
2009,02,04,01,34,0.30
2009,02,04,01,35,0.30
2009,02,04,01,36,0.30
2009,02,04,01,37,0.40
2009,02,04,01,38,0.50
2009,02,04,01,39,0.60
2009,02,04,01,40,0.80
2009,02,04,01,41,0.80
2009,02,04,01,42,0.80
2009,02,04,01,43,0.90
2009,02,04,01,44,1.00
2009,02,04,01,45,1.10
2009,02,04,01,46,1.30
2009,02,04,01,47,1.40
2009,02,04,01,48,1.40
2009,02,04,01,49,1.50
2009,02,04,01,50,1.60
2009,02,04,01,51,1.50
2009,02,04,01,52,1.40
2009,02,04,01,53,1.30
2009,02,04,01,54,1.30
2009,02,04,01,55,1.30
2009,02,04,01,56,1.40
2009,02,04,01,57,1.50
2009,02,04,01,58,1.60
2009,02,04,01,59,1.70
2009,02,04,02,00,1.70
2009,02,04,02,01,1.80
2009,02,04,02,02,1.70
2009,02,04,02,03,1.60
2009,02,04,02,04,1.60
2009,02,04,02,05,1.70
2009,02,04,02,06,1.80
2009,02,04,02,07,1.80
2009,02,04,02,08,1.90
2009,02,04,02,09,2.00
2009,02,04,02,10,2.10
2009,02,04,02,11,2.20
2009,02,04,02,12,2.20
2009,02,04,02,13,2.30
2009,02,04,02,14,2.30
2009,02,04,02,15,2.30
2009,02,04,02,16,2.30
2009,02,04,02,17,2.30
2009,02,04,02,18,2.30
2009,02,04,02,19,2.30
2009,02,04,02,20,2.20
2009,02,04,02,21,2.00
2009,02,04,02,22,1.80
2009,02,04,02,23,1.70
2009,02,04,02,24,1.60
2009,02,04,02,25,1.60
2009,02,04,02,26,1.60
2009,02,04,02,27,1.50
2009,02,04,02,28,1.50
2009,02,04,02,29,1.50
2009,02,04,02,30,1.40
2009,02,04,02,31,1.30
2009,02,04,02,32,1.30
2009,02,04,02,33,1.30
2009,02,04,02,34,1.30
2009,02,04,02,35,1.20
2009,02,04,02,36,1.10
2009,02,04,02,37,1.00
2009,02,04,02,38,1.00
2009,02,04,02,39,1.00
2009,02,04,02,40,1.00
2009,02,04,02,41,1.10
2009,02,04,02,42,1.10
2009,02,04,02,43,1.00
2009,02,04,02,44,0.90
2009,02,04,02,45,0.80
2009,02,04,02,46,0.70
2009,02,04,02,47,0.60
2009,02,04,02,48,0.60
2009,02,04,02,49,0.60
2009,02,04,02,50,0.60
2009,02,04,02,51,0.60
2009,02,04,02,52,0.60
2009,02,04,02,53,0.50
2009,02,04,02,54,0.50
2009,02,04,02,55,0.50
2009,02,04,02,56,0.50
2009,02,04,02,57,0.60
2009,02,04,02,58,0.70
2009,02,04,02,59,0.70
2009,02,04,03,00,0.80
2009,02,04,03,01,0.80
2009,02,04,03,02,0.90
2009,02,04,03,03,1.00
2009,02,04,03,04,1.00
2009,02,04,03,05,1.10
2009,02,04,03,06,1.10
2009,02,04,03,07,1.10
2009,02,04,03,08,1.20
2009,02,04,03,09,1.30
2009,02,04,03,10,1.30
2009,02,04,03,11,1.40
2009,02,04,03,12,1.60
2009,02,04,03,13,1.70
2009,02,04,03,14,1.80
2009,02,04,03,15,1.80
2009,02,04,03,16,1.80
2009,02,04,03,17,1.90
2009,02,04,03,18,1.90
2009,02,04,03,19,1.90
2009,02,04,03,20,1.90
2009,02,04,03,21,2.00
2009,02,04,03,22,2.00
2009,02,04,03,23,2.10
2009,02,04,03,24,2.20
2009,02,04,03,25,2.20
2009,02,04,03,26,2.20
2009,02,04,03,27,2.20
2009,02,04,03,28,2.20
2009,02,04,03,29,2.20
2009,02,04,03,30,2.10
2009,02,04,03,31,2.10
2009,02,04,03,32,2.10
2009,02,04,03,33,2.00
2009,02,04,03,34,2.00
2009,02,04,03,35,2.10
2009,02,04,03,36,2.10
2009,02,04,03,37,2.20
2009,02,04,03,38,2.30
2009,02,04,03,39,2.40
2009,02,04,03,40,2.50
2009,02,04,03,41,2.50
2009,02,04,03,42,2.60
2009,02,04,03,43,2.70
2009,02,04,03,44,2.80
2009,02,04,03,45,2.90
2009,02,04,03,46,2.90
2009,02,04,03,47,2.80
2009,02,04,03,48,2.80
2009,02,04,03,49,2.70
2009,02,04,03,50,2.70
2009,02,04,03,51,2.70
2009,02,04,03,52,2.60
2009,02,04,03,53,2.50
2009,02,04,03,54,2.50
2009,02,04,03,55,2.40
2009,02,04,03,56,2.30
2009,02,04,03,57,2.30
2009,02,04,03,58,2.30
2009,02,04,03,59,2.20
2009,02,04,04,00,2.20
2009,02,04,04,01,2.20
2009,02,04,04,02,2.20
2009,02,04,04,03,2.20
2009,02,04,04,04,2.30
2009,02,04,04,05,2.30
2009,02,04,04,06,2.40
2009,02,04,04,07,2.40
2009,02,04,04,08,2.50
2009,02,04,04,09,2.60
2009,02,04,04,10,2.60
2009,02,04,04,11,2.70
2009,02,04,04,12,2.70
2009,02,04,04,13,2.70
2009,02,04,04,14,2.60
2009,02,04,04,15,2.60
2009,02,04,04,16,2.50
2009,02,04,04,17,2.40
2009,02,04,04,18,2.40
2009,02,04,04,19,2.30
2009,02,04,04,20,2.30
2009,02,04,04,21,2.30
2009,02,04,04,22,2.30
2009,02,04,04,23,2.30
2009,02,04,04,24,2.20
2009,02,04,04,25,2.10
2009,02,04,04,26,2.00
2009,02,04,04,27,1.90
2009,02,04,04,28,1.80
2009,02,04,04,29,1.70
2009,02,04,04,30,1.70
2009,02,04,04,31,1.90
2009,02,04,04,32,2.20
2009,02,04,04,33,2.50
2009,02,04,04,34,2.80
2009,02,04,04,35,3.10
2009,02,04,04,36,3.30
2009,02,04,04,37,3.60
2009,02,04,04,38,3.70
2009,02,04,04,39,3.80
2009,02,04,04,40,3.90
2009,02,04,04,41,3.90
2009,02,04,04,42,3.90
2009,02,04,04,43,3.90
2009,02,04,04,44,4.00
2009,02,04,04,45,3.90
2009,02,04,04,46,3.90
2009,02,04,04,47,3.90
2009,02,04,04,48,3.90
2009,02,04,04,49,3.80
2009,02,04,04,50,3.80
2009,02,04,04,51,3.70
2009,02,04,04,52,3.70
2009,02,04,04,53,3.70
2009,02,04,04,54,3.70
2009,02,04,04,55,3.70
2009,02,04,04,56,3.70
2009,02,04,04,57,3.60
2009,02,04,04,58,3.60
2009,02,04,04,59,3.60
2009,02,04,05,00,3.60
2009,02,04,05,01,3.60
2009,02,04,05,02,3.60
2009,02,04,05,03,3.60
2009,02,04,05,04,3.60
2009,02,04,05,05,3.50
2009,02,04,05,06,3.40
2009,02,04,05,07,3.40
2009,02,04,05,08,3.40
2009,02,04,05,09,3.30
2009,02,04,05,10,3.30
2009,02,04,05,11,3.20
2009,02,04,05,12,3.10
2009,02,04,05,13,3.10
2009,02,04,05,14,3.10
2009,02,04,05,15,3.10
2009,02,04,05,16,3.10
2009,02,04,05,17,3.10
2009,02,04,05,18,3.20
2009,02,04,05,19,3.20
2009,02,04,05,20,3.20
2009,02,04,05,21,3.20
2009,02,04,05,22,3.20
2009,02,04,05,23,3.10
2009,02,04,05,24,3.10
2009,02,04,05,25,3.10
2009,02,04,05,26,3.00
2009,02,04,05,27,2.90
2009,02,04,05,28,2.70
2009,02,04,05,29,2.60
2009,02,04,05,30,2.40
2009,02,04,05,31,2.30
2009,02,04,05,32,2.30
2009,02,04,05,33,2.30
2009,02,04,05,34,2.40
2009,02,04,05,35,2.50
2009,02,04,05,36,2.60
2009,02,04,05,37,2.70
2009,02,04,05,38,2.70
2009,02,04,05,39,2.80
2009,02,04,05,40,2.80
2009,02,04,05,41,2.80
2009,02,04,05,42,2.90
2009,02,04,05,43,2.90
2009,02,04,05,44,2.90
2009,02,04,05,45,2.90
2009,02,04,05,46,2.90
2009,02,04,05,47,3.00
2009,02,04,05,48,3.00
2009,02,04,05,49,3.10
2009,02,04,05,50,3.20
2009,02,04,05,51,3.20
2009,02,04,05,52,3.20
2009,02,04,05,53,3.20
2009,02,04,05,54,3.20
2009,02,04,05,55,3.20
2009,02,04,05,56,3.20
2009,02,04,05,57,3.20
2009,02,04,05,58,3.30
2009,02,04,05,59,3.30
2009,02,04,06,00,3.40
2009,02,04,06,01,3.50
2009,02,04,06,02,3.60
2009,02,04,06,03,3.70
2009,02,04,06,04,3.80
2009,02,04,06,05,3.90
2009,02,04,06,06,4.00
2009,02,04,06,07,4.10
2009,02,04,06,08,4.10
2009,02,04,06,09,4.20
2009,02,04,06,10,4.20
2009,02,04,06,11,4.20
2009,02,04,06,12,4.20
2009,02,04,06,13,4.20
2009,02,04,06,14,4.20
2009,02,04,06,15,4.20
2009,02,04,06,16,4.20
2009,02,04,06,17,4.20
2009,02,04,06,18,4.20
2009,02,04,06,19,4.20
2009,02,04,06,20,4.20
2009,02,04,06,21,4.30
2009,02,04,06,22,4.30
2009,02,04,06,23,4.30
2009,02,04,06,24,4.30
2009,02,04,06,25,4.30
2009,02,04,06,26,4.30
2009,02,04,06,27,4.30
2009,02,04,06,28,4.30
2009,02,04,06,29,4.30
2009,02,04,06,30,4.30
2009,02,04,06,31,4.30
2009,02,04,06,32,4.40
2009,02,04,06,33,4.40
2009,02,04,06,34,4.40
2009,02,04,06,35,4.40
2009,02,04,06,36,4.40
2009,02,04,06,37,4.40
2009,02,04,06,38,4.40
2009,02,04,06,39,4.40
2009,02,04,06,40,4.40
2009,02,04,06,41,4.30
2009,02,04,06,42,4.30
2009,02,04,06,43,4.30
2009,02,04,06,44,4.30
2009,02,04,06,45,4.30
2009,02,04,06,46,4.30
2009,02,04,06,47,4.40
2009,02,04,06,48,4.30
2009,02,04,06,49,4.20
2009,02,04,06,50,4.10
2009,02,04,06,51,4.00
2009,02,04,06,52,3.90
2009,02,04,06,53,3.80
2009,02,04,06,54,3.70
2009,02,04,06,55,3.60
2009,02,04,06,56,3.50
2009,02,04,06,57,3.40
2009,02,04,06,58,3.30
2009,02,04,06,59,3.30
2009,02,04,07,00,3.20
2009,02,04,07,01,3.20
2009,02,04,07,02,3.10
2009,02,04,07,03,3.00
2009,02,04,07,04,2.90
2009,02,04,07,05,2.80
2009,02,04,07,06,2.90
2009,02,04,07,07,2.90
2009,02,04,07,08,2.90
2009,02,04,07,09,2.90
2009,02,04,07,10,2.80
2009,02,04,07,11,2.80
2009,02,04,07,12,2.70
2009,02,04,07,13,2.70
2009,02,04,07,14,2.70
2009,02,04,07,15,2.60
2009,02,04,07,16,2.60
2009,02,04,07,17,2.60
2009,02,04,07,18,2.60
2009,02,04,07,19,2.60
2009,02,04,07,20,2.50
2009,02,04,07,21,2.50
2009,02,04,07,22,2.40
2009,02,04,07,23,2.40
2009,02,04,07,24,2.40
2009,02,04,07,25,2.30
2009,02,04,07,26,2.30
2009,02,04,07,27,2.30
2009,02,04,07,28,2.30
2009,02,04,07,29,2.30
2009,02,04,07,30,2.30
2009,02,04,07,31,2.30
2009,02,04,07,32,2.30
2009,02,04,07,33,2.30
2009,02,04,07,34,2.30
2009,02,04,07,35,2.40
2009,02,04,07,36,2.40
2009,02,04,07,37,2.40
2009,02,04,07,38,2.50
2009,02,04,07,39,2.50
2009,02,04,07,40,2.50
2009,02,04,07,41,2.50
2009,02,04,07,42,2.60
2009,02,04,07,43,2.60
2009,02,04,07,44,2.60
2009,02,04,07,45,2.60
2009,02,04,07,46,2.70
2009,02,04,07,47,2.70
2009,02,04,07,48,2.70
2009,02,04,07,49,2.80
2009,02,04,07,50,2.80
2009,02,04,07,51,2.80
2009,02,04,07,52,2.90
2009,02,04,07,53,2.80
2009,02,04,07,54,2.80
2009,02,04,07,55,2.80
2009,02,04,07,56,2.70
2009,02,04,07,57,2.70
2009,02,04,07,58,2.60
2009,02,04,07,59,2.60
2009,02,04,08,00,2.60
2009,02,04,08,01,2.60
2009,02,04,08,02,2.50
2009,02,04,08,03,2.60
2009,02,04,08,04,2.50
2009,02,04,08,05,2.50
2009,02,04,08,06,2.50
2009,02,04,08,07,2.40
2009,02,04,08,08,2.40
2009,02,04,08,09,2.40
2009,02,04,08,10,2.40
2009,02,04,08,11,2.40
2009,02,04,08,12,2.40
2009,02,04,08,13,2.50
2009,02,04,08,14,2.50
2009,02,04,08,15,2.50
2009,02,04,08,16,2.50
2009,02,04,08,17,2.50
2009,02,04,08,18,2.50
2009,02,04,08,19,2.50
2009,02,04,08,20,2.40
2009,02,04,08,21,2.30
2009,02,04,08,22,2.20
2009,02,04,08,23,2.20
2009,02,04,08,24,2.20
2009,02,04,08,25,2.20
2009,02,04,08,26,2.30
2009,02,04,08,27,2.40
2009,02,04,08,28,2.40
2009,02,04,08,29,2.50
2009,02,04,08,30,2.50
2009,02,04,08,31,2.60
2009,02,04,08,32,2.60
2009,02,04,08,33,2.70
2009,02,04,08,34,2.70
2009,02,04,08,35,2.80
2009,02,04,08,36,2.80
2009,02,04,08,37,2.90
2009,02,04,08,38,2.90
2009,02,04,08,39,3.00
2009,02,04,08,40,3.00
2009,02,04,08,41,3.10
2009,02,04,08,42,3.10
2009,02,04,08,43,3.20
2009,02,04,08,44,3.20
2009,02,04,08,45,3.30
2009,02,04,08,46,3.30
2009,02,04,08,47,3.30
2009,02,04,08,48,3.30
2009,02,04,08,49,3.40
2009,02,04,08,50,3.40
2009,02,04,08,51,3.40
2009,02,04,08,52,3.40
2009,02,04,08,53,3.50
2009,02,04,08,54,3.50
2009,02,04,08,55,3.60
2009,02,04,08,56,3.60
2009,02,04,08,57,3.60
2009,02,04,08,58,3.70
2009,02,04,08,59,3.70
2009,02,04,09,00,3.70
2009,02,04,09,01,3.70
2009,02,04,09,02,3.80
2009,02,04,09,03,3.80
2009,02,04,09,04,3.80
2009,02,04,09,05,3.80
2009,02,04,09,06,3.90
2009,02,04,09,07,3.90
2009,02,04,09,08,3.90
2009,02,04,09,09,3.90
2009,02,04,09,10,4.00
2009,02,04,09,11,4.00
2009,02,04,09,12,4.00
2009,02,04,09,13,4.10
2009,02,04,09,14,4.10
2009,02,04,09,15,4.10
2009,02,04,09,16,4.10
2009,02,04,09,17,4.20
2009,02,04,09,18,4.20
2009,02,04,09,19,4.20
2009,02,04,09,20,4.20
2009,02,04,09,21,4.20
2009,02,04,09,22,4.20
2009,02,04,09,23,4.20
2009,02,04,09,24,4.20
2009,02,04,09,25,4.20
2009,02,04,09,26,4.20
2009,02,04,09,27,4.20
2009,02,04,09,28,4.20
2009,02,04,09,29,4.20
2009,02,04,09,30,4.20
2009,02,04,09,31,4.30
2009,02,04,09,32,4.30
2009,02,04,09,33,4.30
2009,02,04,09,34,4.30
2009,02,04,09,35,4.30
2009,02,04,09,36,4.30
2009,02,04,09,37,4.30
2009,02,04,09,38,4.30
2009,02,04,09,39,4.30
2009,02,04,09,40,4.40
2009,02,04,09,41,4.40
2009,02,04,09,42,4.40
2009,02,04,09,43,4.40
2009,02,04,09,44,4.40
2009,02,04,09,45,4.50
2009,02,04,09,46,4.50
2009,02,04,09,47,4.50
2009,02,04,09,48,4.60
2009,02,04,09,49,4.60
2009,02,04,09,50,4.60
2009,02,04,09,51,4.70
2009,02,04,09,52,4.70
2009,02,04,09,53,4.80
2009,02,04,09,54,4.80
2009,02,04,09,55,4.80
2009,02,04,09,56,4.90
2009,02,04,09,57,4.90
2009,02,04,09,58,4.90
2009,02,04,09,59,5.00
2009,02,04,10,00,5.10
2009,02,04,10,01,5.10
2009,02,04,10,02,5.10
2009,02,04,10,03,5.10
2009,02,04,10,04,5.20
2009,02,04,10,05,5.20
2009,02,04,10,06,5.20
2009,02,04,10,07,5.30
2009,02,04,10,08,5.30
2009,02,04,10,09,5.30
2009,02,04,10,10,5.30
2009,02,04,10,11,5.40
2009,02,04,10,12,5.40
2009,02,04,10,13,5.40
2009,02,04,10,14,5.50
2009,02,04,10,15,5.60
2009,02,04,10,16,5.60
2009,02,04,10,17,5.70
2009,02,04,10,18,5.70
2009,02,04,10,19,5.80
2009,02,04,10,20,5.80
2009,02,04,10,21,5.90
2009,02,04,10,22,6.00
2009,02,04,10,23,6.00
2009,02,04,10,24,6.00
2009,02,04,10,25,6.00
2009,02,04,10,26,6.00
2009,02,04,10,27,6.00
2009,02,04,10,28,5.90
2009,02,04,10,29,5.90
2009,02,04,10,30,5.90
2009,02,04,10,31,5.80
2009,02,04,10,32,5.80
2009,02,04,10,33,5.80
2009,02,04,10,34,5.80
2009,02,04,10,35,5.80
2009,02,04,10,36,5.80
2009,02,04,10,37,5.80
2009,02,04,10,38,5.80
2009,02,04,10,39,5.70
2009,02,04,10,40,5.70
2009,02,04,10,41,5.70
2009,02,04,10,42,5.70
2009,02,04,10,43,5.70
2009,02,04,10,44,5.70
2009,02,04,10,45,5.80
2009,02,04,10,46,5.80
2009,02,04,10,47,5.70
2009,02,04,10,48,5.70
2009,02,04,10,49,5.70
2009,02,04,10,50,5.70
2009,02,04,10,51,5.70
2009,02,04,10,52,5.70
2009,02,04,10,53,5.70
2009,02,04,10,54,5.70
2009,02,04,10,55,5.70
2009,02,04,10,56,5.80
2009,02,04,10,57,5.80
2009,02,04,10,58,5.90
2009,02,04,10,59,5.90
2009,02,04,11,00,5.90
2009,02,04,11,01,5.90
2009,02,04,11,02,5.90
2009,02,04,11,03,5.90
2009,02,04,11,04,5.90
2009,02,04,11,05,5.80
2009,02,04,11,06,5.80
2009,02,04,11,07,5.80
2009,02,04,11,08,5.80
2009,02,04,11,09,5.80
2009,02,04,11,10,5.80
2009,02,04,11,11,5.70
2009,02,04,11,12,5.70
2009,02,04,11,13,5.70
2009,02,04,11,14,5.70
2009,02,04,11,15,5.70
2009,02,04,11,16,5.70
2009,02,04,11,17,5.70
2009,02,04,11,18,5.70
2009,02,04,11,19,5.70
2009,02,04,11,20,5.70
2009,02,04,11,21,5.70
2009,02,04,11,22,5.70
2009,02,04,11,23,5.80
2009,02,04,11,24,5.80
2009,02,04,11,25,5.80
2009,02,04,11,26,5.70
2009,02,04,11,27,5.70
2009,02,04,11,28,5.70
2009,02,04,11,29,5.60
2009,02,04,11,30,5.60
2009,02,04,11,31,5.60
2009,02,04,11,32,5.60
2009,02,04,11,33,5.60
2009,02,04,11,34,5.60
2009,02,04,11,35,5.60
2009,02,04,11,36,5.60
2009,02,04,11,37,5.60
2009,02,04,11,38,5.60
2009,02,04,11,39,5.60
2009,02,04,11,40,5.60
2009,02,04,11,41,5.60
2009,02,04,11,42,5.60
2009,02,04,11,43,5.60
2009,02,04,11,44,5.50
2009,02,04,11,45,5.50
2009,02,04,11,46,5.50
2009,02,04,11,47,5.60
2009,02,04,11,48,5.60
2009,02,04,11,49,5.60
2009,02,04,11,50,5.60
2009,02,04,11,51,5.70
2009,02,04,11,52,5.70
2009,02,04,11,53,5.70
2009,02,04,11,54,5.70
2009,02,04,11,55,5.70
2009,02,04,11,56,5.70
2009,02,04,11,57,5.80
2009,02,04,11,58,5.80
2009,02,04,11,59,5.80
2009,02,04,12,00,5.90
2009,02,04,12,01,5.90
2009,02,04,12,02,5.90
2009,02,04,12,03,5.90
2009,02,04,12,04,5.90
2009,02,04,12,05,5.90
2009,02,04,12,06,5.90
2009,02,04,12,07,5.90
2009,02,04,12,08,5.80
2009,02,04,12,09,5.80
2009,02,04,12,10,5.80
2009,02,04,12,11,5.80
2009,02,04,12,12,5.80
2009,02,04,12,13,5.80
2009,02,04,12,14,5.80
2009,02,04,12,15,5.70
2009,02,04,12,16,5.70
2009,02,04,12,17,5.70
2009,02,04,12,18,5.80
2009,02,04,12,19,5.80
2009,02,04,12,20,5.80
2009,02,04,12,21,5.80
2009,02,04,12,22,5.80
2009,02,04,12,23,5.80
2009,02,04,12,24,5.80
2009,02,04,12,25,5.90
2009,02,04,12,26,5.90
2009,02,04,12,27,5.90
2009,02,04,12,28,5.90
2009,02,04,12,29,5.90
2009,02,04,12,30,5.90
2009,02,04,12,31,5.90
2009,02,04,12,32,5.90
2009,02,04,12,33,5.90
2009,02,04,12,34,5.90
2009,02,04,12,35,5.90
2009,02,04,12,36,6.00
2009,02,04,12,37,6.00
2009,02,04,12,38,6.00
2009,02,04,12,39,5.90
2009,02,04,12,40,5.90
2009,02,04,12,41,5.80
2009,02,04,12,42,5.80
2009,02,04,12,43,5.80
2009,02,04,12,44,5.80
2009,02,04,12,45,5.80
2009,02,04,12,46,5.80
2009,02,04,12,47,5.80
2009,02,04,12,48,5.80
2009,02,04,12,49,5.80
2009,02,04,12,50,5.90
2009,02,04,12,51,5.90
2009,02,04,12,52,5.90
2009,02,04,12,53,6.00
2009,02,04,12,54,6.00
2009,02,04,12,55,6.00
2009,02,04,12,56,6.00
2009,02,04,12,57,6.00
2009,02,04,12,58,6.00
2009,02,04,12,59,6.00
2009,02,04,13,00,5.90
2009,02,04,13,01,5.90
2009,02,04,13,02,5.90
2009,02,04,13,03,5.90
2009,02,04,13,04,5.90
2009,02,04,13,05,5.90
2009,02,04,13,06,5.90
2009,02,04,13,07,5.90
2009,02,04,13,08,5.90
2009,02,04,13,09,6.00
2009,02,04,13,10,6.00
2009,02,04,13,11,6.00
2009,02,04,13,12,6.10
2009,02,04,13,13,6.10
2009,02,04,13,14,6.10
2009,02,04,13,15,6.20
2009,02,04,13,16,6.20
2009,02,04,13,17,6.20
2009,02,04,13,18,6.20
2009,02,04,13,19,6.30
2009,02,04,13,20,6.30
2009,02,04,13,21,6.30
2009,02,04,13,22,6.30
2009,02,04,13,23,6.40
2009,02,04,13,24,6.40
2009,02,04,13,25,6.40
2009,02,04,13,26,6.40
2009,02,04,13,27,6.40
2009,02,04,13,28,6.40
2009,02,04,13,29,6.40
2009,02,04,13,30,6.40
2009,02,04,13,31,6.30
2009,02,04,13,32,6.30
2009,02,04,13,33,6.30
2009,02,04,13,34,6.30
2009,02,04,13,35,6.30
2009,02,04,13,36,6.20
2009,02,04,13,37,6.20
2009,02,04,13,38,6.20
2009,02,04,13,39,6.20
2009,02,04,13,40,6.20
2009,02,04,13,41,6.20
2009,02,04,13,42,6.20
2009,02,04,13,43,6.20
2009,02,04,13,44,6.30
2009,02,04,13,45,6.40
2009,02,04,13,46,6.40
2009,02,04,13,47,6.50
2009,02,04,13,48,6.50
2009,02,04,13,49,6.50
2009,02,04,13,50,6.60
2009,02,04,13,51,6.60
2009,02,04,13,52,6.60
2009,02,04,13,53,6.60
2009,02,04,13,54,6.50
2009,02,04,13,55,6.50
2009,02,04,13,56,6.50
2009,02,04,13,57,6.40
2009,02,04,13,58,6.40
2009,02,04,13,59,6.40
2009,02,04,14,00,6.40
2009,02,04,14,01,6.40
2009,02,04,14,02,6.40
2009,02,04,14,03,6.50
2009,02,04,14,04,6.50
2009,02,04,14,05,6.60
2009,02,04,14,06,6.70
2009,02,04,14,07,6.70
2009,02,04,14,08,6.70
2009,02,04,14,09,6.70
2009,02,04,14,10,6.70
2009,02,04,14,11,6.70
2009,02,04,14,12,6.80
2009,02,04,14,13,6.90
2009,02,04,14,14,6.90
2009,02,04,14,15,7.00
2009,02,04,14,16,7.10
2009,02,04,14,17,7.10
2009,02,04,14,18,7.10
2009,02,04,14,19,7.10
2009,02,04,14,20,7.10
2009,02,04,14,21,7.10
2009,02,04,14,22,7.10
2009,02,04,14,23,7.10
2009,02,04,14,24,7.10
2009,02,04,14,25,7.10
2009,02,04,14,26,7.10
2009,02,04,14,27,7.10
2009,02,04,14,28,7.10
2009,02,04,14,29,7.10
2009,02,04,14,30,7.10
2009,02,04,14,31,7.10
2009,02,04,14,32,7.10
2009,02,04,14,33,7.00
2009,02,04,14,34,6.90
2009,02,04,14,35,6.90
2009,02,04,14,36,6.80
2009,02,04,14,37,6.70
2009,02,04,14,38,6.60
2009,02,04,14,39,6.50
2009,02,04,14,40,6.50
2009,02,04,14,41,6.40
2009,02,04,14,42,6.40
2009,02,04,14,43,6.40
2009,02,04,14,44,6.40
2009,02,04,14,45,6.40
2009,02,04,14,46,6.30
2009,02,04,14,47,6.30
2009,02,04,14,48,6.30
2009,02,04,14,49,6.20
2009,02,04,14,50,6.20
2009,02,04,14,51,6.20
2009,02,04,14,52,6.10
2009,02,04,14,53,6.10
2009,02,04,14,54,6.10
2009,02,04,14,55,6.10
2009,02,04,14,56,6.10
2009,02,04,14,57,6.10
2009,02,04,14,58,6.10
2009,02,04,14,59,6.10
2009,02,04,15,00,6.10
2009,02,04,15,01,6.10
2009,02,04,15,02,6.20
2009,02,04,15,03,6.20
2009,02,04,15,04,6.20
2009,02,04,15,05,6.20
2009,02,04,15,06,6.30
2009,02,04,15,07,6.30
2009,02,04,15,08,6.30
2009,02,04,15,09,6.30
2009,02,04,15,10,6.30
2009,02,04,15,11,6.40
2009,02,04,15,12,6.40
2009,02,04,15,13,6.40
2009,02,04,15,14,6.30
2009,02,04,15,15,6.30
2009,02,04,15,16,6.30
2009,02,04,15,17,6.30
2009,02,04,15,18,6.30
2009,02,04,15,19,6.30
2009,02,04,15,20,6.30
2009,02,04,15,21,6.30
2009,02,04,15,22,6.20
2009,02,04,15,23,6.20
2009,02,04,15,24,6.20
2009,02,04,15,25,6.20
2009,02,04,15,26,6.20
2009,02,04,15,27,6.20
2009,02,04,15,28,6.20
2009,02,04,15,29,6.20
2009,02,04,15,30,6.20
2009,02,04,15,31,6.20
2009,02,04,15,32,6.10
2009,02,04,15,33,6.10
2009,02,04,15,34,6.10
2009,02,04,15,35,6.10
2009,02,04,15,36,6.10
2009,02,04,15,37,6.00
2009,02,04,15,38,6.00
2009,02,04,15,39,6.00
2009,02,04,15,40,6.10
2009,02,04,15,41,6.10
2009,02,04,15,42,6.10
2009,02,04,15,43,6.10
2009,02,04,15,44,6.10
2009,02,04,15,45,6.10
2009,02,04,15,46,6.10
2009,02,04,15,47,6.00
2009,02,04,15,48,6.00
2009,02,04,15,49,6.00
2009,02,04,15,50,6.00
2009,02,04,15,51,6.00
2009,02,04,15,52,6.00
2009,02,04,15,53,6.00
2009,02,04,15,54,6.00
2009,02,04,15,55,6.00
2009,02,04,15,56,6.00
2009,02,04,15,57,6.00
2009,02,04,15,58,6.00
2009,02,04,15,59,6.00
2009,02,04,16,00,6.00
2009,02,04,16,01,5.90
2009,02,04,16,02,5.90
2009,02,04,16,03,5.90
2009,02,04,16,04,5.90
2009,02,04,16,05,5.90
2009,02,04,16,06,5.80
2009,02,04,16,07,5.80
2009,02,04,16,08,5.80
2009,02,04,16,09,5.70
2009,02,04,16,10,5.70
2009,02,04,16,11,5.70
2009,02,04,16,12,5.70
2009,02,04,16,13,5.70
2009,02,04,16,14,5.70
2009,02,04,16,15,5.60
2009,02,04,16,16,5.60
2009,02,04,16,17,5.60
2009,02,04,16,18,5.60
2009,02,04,16,19,5.60
2009,02,04,16,20,5.60
2009,02,04,16,21,5.60
2009,02,04,16,22,5.50
2009,02,04,16,23,5.50
2009,02,04,16,24,5.50
2009,02,04,16,25,5.50
2009,02,04,16,26,5.50
2009,02,04,16,27,5.50
2009,02,04,16,28,5.50
2009,02,04,16,29,5.50
2009,02,04,16,30,5.50
2009,02,04,16,31,5.50
2009,02,04,16,32,5.50
2009,02,04,16,33,5.50
2009,02,04,16,34,5.50
2009,02,04,16,35,5.50
2009,02,04,16,36,5.50
2009,02,04,16,37,5.40
2009,02,04,16,38,5.40
2009,02,04,16,39,5.40
2009,02,04,16,40,5.40
2009,02,04,16,41,5.40
2009,02,04,16,42,5.40
2009,02,04,16,43,5.40
2009,02,04,16,44,5.40
2009,02,04,16,45,5.40
2009,02,04,16,46,5.40
2009,02,04,16,47,5.40
2009,02,04,16,48,5.40
2009,02,04,16,49,5.40
2009,02,04,16,50,5.40
2009,02,04,16,51,5.40
2009,02,04,16,52,5.40
2009,02,04,16,53,5.30
2009,02,04,16,54,5.30
2009,02,04,16,55,5.30
2009,02,04,16,56,5.30
2009,02,04,16,57,5.30
2009,02,04,16,58,5.30
2009,02,04,16,59,5.30
2009,02,04,17,00,5.30
2009,02,04,17,01,5.30
2009,02,04,17,02,5.30
2009,02,04,17,03,5.30
2009,02,04,17,04,5.30
2009,02,04,17,05,5.20
2009,02,04,17,06,5.20
2009,02,04,17,07,5.20
2009,02,04,17,08,5.20
2009,02,04,17,09,5.20
2009,02,04,17,10,5.10
2009,02,04,17,11,5.10
2009,02,04,17,12,5.10
2009,02,04,17,13,5.10
2009,02,04,17,14,5.10
2009,02,04,17,15,5.10
2009,02,04,17,16,5.00
2009,02,04,17,17,5.00
2009,02,04,17,18,4.90
2009,02,04,17,19,4.90
2009,02,04,17,20,4.80
2009,02,04,17,21,4.70
2009,02,04,17,22,4.60
2009,02,04,17,23,4.60
2009,02,04,17,24,4.50
2009,02,04,17,25,4.40
2009,02,04,17,26,4.40
2009,02,04,17,27,4.30
2009,02,04,17,28,4.30
2009,02,04,17,29,4.30
2009,02,04,17,30,4.30
2009,02,04,17,31,4.30
2009,02,04,17,32,4.30
2009,02,04,17,33,4.30
2009,02,04,17,34,4.30
2009,02,04,17,35,4.30
2009,02,04,17,36,4.30
2009,02,04,17,37,4.30
2009,02,04,17,38,4.30
2009,02,04,17,39,4.30
2009,02,04,17,40,4.30
2009,02,04,17,41,4.40
2009,02,04,17,42,4.40
2009,02,04,17,43,4.40
2009,02,04,17,44,4.40
2009,02,04,17,45,4.40
2009,02,04,17,46,4.40
2009,02,04,17,47,4.40
2009,02,04,17,48,4.40
2009,02,04,17,49,4.40
2009,02,04,17,50,4.40
2009,02,04,17,51,4.40
2009,02,04,17,52,4.50
2009,02,04,17,53,4.50
2009,02,04,17,54,4.50
2009,02,04,17,55,4.60
2009,02,04,17,56,4.60
2009,02,04,17,57,4.60
2009,02,04,17,58,4.70
2009,02,04,17,59,4.70
2009,02,04,18,00,4.70
2009,02,04,18,01,4.80
2009,02,04,18,02,4.80
2009,02,04,18,03,4.80
2009,02,04,18,04,4.90
2009,02,04,18,05,4.90
2009,02,04,18,06,4.90